Location: Bh?mavarapp?du
(16.7041°N, 80.6518°E)
Time: 07:51:27
(UTC+00:00)

Centaur D-1AR AC-36 - Pass Details

Date: 21 April 2021
Orbit: 556 x 36346 km, 21.8° (Epoch: 06 May)

Event Time Altitude Azimuth Distance (km) Brightness Sun altitude
Rises 13:53:11 0° 249° (WSW) 11,129 8.8 -14.4°
Reaches altitude 10° 14:05:14 10° 248° (WSW) 6,467 7.4 -17.2°
Maximum altitude 14:17:58 70° 166° (SSE) 1,018 2.4 -20.0°
Enters shadow 14:19:31 40° 95° (E) 1,144 2.4 -20.4°
